When you browse on this site, cookies collect data to enhance your experience and personalize the content and advertising you see.
Visit our Privacy Policy to learn more. By continuing to use the site, you agree to this use of cookies and data.
  • In Austria
  • List of Countries
  • For 7 days
  • Water Temperature
  • Weather Map
  • News
  • Weather Widgets
  • user-avatar
    Login

    Hourly Weather Asadabad

    Today, 31 May, Sunday

    Time Temperature Precipitation Wind Pressure Humidity
    00:00 +19°C° 0.7 mm 0 mps 657 mmHg 81%
    01:00 +18°C° 0.7 mm 0 mps 657 mmHg 81%
    02:00 +18°C° 0.7 mm 0 mps 656 mmHg 81%
    03:00 +18°C° 0.1 mm 0 mps 656 mmHg 79%
    04:00 +17°C° 0.1 mm 0 mps 656 mmHg 78%
    05:00 +17°C° 0.1 mm 0 mps 656 mmHg 77%
    06:00 +18°C° 0 mm 0 mps 657 mmHg 70%
    07:00 +20°C° 0 mm 0 mps 657 mmHg 63%
    08:00 +21°C° 0 mm 0 mps 658 mmHg 57%
    09:00 +24°C° 0.3 mm 1 mps 658 mmHg 55%
    10:00 +25°C° 0.3 mm 2 mps 658 mmHg 53%
    11:00 +26°C° 0.3 mm 3 mps 658 mmHg 51%
    12:00 +26°C° 0.3 mm 3 mps 658 mmHg 51%
    13:00 +27°C° 0.3 mm 3 mps 658 mmHg 51%
    14:00 +27°C° 0.3 mm 3 mps 657 mmHg 51%
    15:00 +27°C° 0.3 mm 3 mps 657 mmHg 51%
    16:00 +27°C° 0.3 mm 3 mps 657 mmHg 52%
    17:00 +27°C° 0.3 mm 3 mps 656 mmHg 52%
    18:00 +26°C° 0.1 mm 2 mps 656 mmHg 58%
    19:00 +24°C° 0.1 mm 2 mps 656 mmHg 65%
    20:00 +23°C° 0.1 mm 1 mps 656 mmHg 71%
    21:00 +23°C° 0.9 mm 1 mps 657 mmHg 73%
    22:00 +22°C° 0.9 mm 1 mps 657 mmHg 75%
    23:00 +22°C° 0.9 mm 1 mps 657 mmHg 77%

    Tomorrow, 1 June, Monday

    Time Temperature Precipitation Wind Pressure Humidity
    00:00 +21°C° 0.2 mm 1 mps 657 mmHg 77%
    01:00 +21°C° 0.2 mm 1 mps 657 mmHg 77%
    02:00 +21°C° 0.2 mm 1 mps 657 mmHg 76%
    03:00 +20°C° 0.5 mm 1 mps 656 mmHg 76%
    04:00 +20°C° 0.5 mm 1 mps 656 mmHg 76%
    05:00 +19°C° 0.5 mm 1 mps 656 mmHg 76%
    06:00 +21°C° 0.2 mm 1 mps 657 mmHg 69%
    07:00 +22°C° 0.2 mm 1 mps 657 mmHg 63%
    08:00 +24°C° 0.2 mm 1 mps 658 mmHg 57%
    09:00 +24°C° 0.4 mm 2 mps 658 mmHg 55%
    10:00 +25°C° 0.4 mm 2 mps 658 mmHg 54%
    11:00 +26°C° 0.4 mm 2 mps 658 mmHg 53%
    12:00 +27°C° 0.2 mm 2 mps 658 mmHg 51%
    13:00 +28°C° 0.2 mm 2 mps 658 mmHg 48%
    14:00 +28°C° 0.2 mm 2 mps 658 mmHg 46%
    15:00 +28°C° 0.7 mm 2 mps 658 mmHg 46%
    16:00 +28°C° 0.7 mm 2 mps 657 mmHg 46%
    17:00 +28°C° 0.7 mm 2 mps 657 mmHg 47%
    18:00 +27°C° 0.2 mm 1 mps 657 mmHg 52%
    19:00 +26°C° 0.2 mm 1 mps 657 mmHg 58%
    20:00 +25°C° 0.2 mm 1 mps 657 mmHg 64%
    21:00 +24°C° 0.8 mm 1 mps 657 mmHg 64%
    22:00 +23°C° 0.8 mm 1 mps 657 mmHg 64%
    23:00 +23°C° 0.8 mm 1 mps 657 mmHg 65%

    Day after tomorrow, 2 June, Tuesday

    Time Temperature Precipitation Wind Pressure Humidity
    00:00 +22°C° 0.5 mm 1 mps 656 mmHg 64%
    01:00 +22°C° 0.5 mm 1 mps 656 mmHg 64%
    02:00 +20°C° 0.5 mm 2 mps 656 mmHg 63%
    03:00 +21°C° 0.4 mm 1 mps 656 mmHg 62%
    04:00 +21°C° 0.4 mm 1 mps 656 mmHg 60%
    05:00 +21°C° 0.4 mm 1 mps 656 mmHg 58%
    06:00 +22°C° 0.3 mm 1 mps 656 mmHg 53%
    07:00 +24°C° 0.3 mm 1 mps 657 mmHg 47%
    08:00 +23°C° 0.3 mm 0 mps 657 mmHg 42%
    09:00 +26°C° 0 mm 1 mps 658 mmHg 41%
    10:00 +27°C° 0 mm 2 mps 658 mmHg 40%
    11:00 +28°C° 0 mm 2 mps 658 mmHg 38%
    12:00 +29°C° 0 mm 2 mps 658 mmHg 37%
    13:00 +30°C° 0 mm 3 mps 657 mmHg 36%
    14:00 +30°C° 0 mm 3 mps 657 mmHg 35%
    15:00 +30°C° 0.1 mm 3 mps 657 mmHg 35%
    16:00 +30°C° 0.1 mm 3 mps 657 mmHg 36%
    17:00 +30°C° 0.1 mm 3 mps 656 mmHg 37%
    18:00 +29°C° 0.1 mm 2 mps 656 mmHg 43%
    19:00 +27°C° 0.1 mm 1 mps 656 mmHg 50%
    20:00 +26°C° 0.1 mm 1 mps 656 mmHg 57%
    21:00 +25°C° 0.3 mm 1 mps 656 mmHg 58%
    22:00 +24°C° 0.3 mm 1 mps 656 mmHg 59%
    23:00 +24°C° 0.3 mm 1 mps 656 mmHg 60%

    3 June, Wednesday

    Time Temperature Precipitation Wind Pressure Humidity
    00:00 +23°C° 0.4 mm 2 mps 656 mmHg 60%
    01:00 +23°C° 0.4 mm 2 mps 655 mmHg 60%
    02:00 +21°C° 0.4 mm 2 mps 655 mmHg 59%
    03:00 +21°C° 0.3 mm 2 mps 655 mmHg 58%
    04:00 +21°C° 0.3 mm 2 mps 655 mmHg 56%
    05:00 +20°C° 0.3 mm 2 mps 655 mmHg 54%
    06:00 +23°C° 0.2 mm 1 mps 655 mmHg 49%
    07:00 +25°C° 0.2 mm 1 mps 656 mmHg 44%
    08:00 +26°C° 0.2 mm 1 mps 656 mmHg 38%
    09:00 +27°C° 0 mm 1 mps 656 mmHg 37%
    10:00 +28°C° 0 mm 1 mps 656 mmHg 35%
    11:00 +30°C° 0 mm 2 mps 656 mmHg 34%
    12:00 +30°C° 0 mm 2 mps 656 mmHg 33%
    13:00 +31°C° 0 mm 2 mps 656 mmHg 32%
    14:00 +31°C° 0 mm 2 mps 656 mmHg 31%
    15:00 +31°C° 0.1 mm 2 mps 656 mmHg 30%
    16:00 +31°C° 0.1 mm 2 mps 655 mmHg 29%
    17:00 +32°C° 0.1 mm 2 mps 655 mmHg 29%
    18:00 +30°C° 0.1 mm 2 mps 655 mmHg 36%
    19:00 +28°C° 0.1 mm 2 mps 655 mmHg 43%
    20:00 +26°C° 0.1 mm 2 mps 655 mmHg 51%
    21:00 +26°C° 0.4 mm 2 mps 655 mmHg 53%
    22:00 +25°C° 0.4 mm 2 mps 655 mmHg 56%
    23:00 +24°C° 0.4 mm 2 mps 655 mmHg 59%

    4 June, Thursday

    Time Temperature Precipitation Wind Pressure Humidity
    00:00 +24°C° 0.4 mm 2 mps 655 mmHg 58%
    01:00 +24°C° 0.4 mm 2 mps 654 mmHg 58%
    02:00 +24°C° 0.4 mm 2 mps 654 mmHg 57%
    03:00 +23°C° 0.2 mm 2 mps 655 mmHg 56%
    04:00 +23°C° 0.2 mm 2 mps 655 mmHg 55%
    05:00 +23°C° 0.2 mm 2 mps 655 mmHg 55%
    06:00 +24°C° 0 mm 2 mps 655 mmHg 50%
    07:00 +26°C° 0 mm 1 mps 655 mmHg 44%
    08:00 +27°C° 0 mm 1 mps 656 mmHg 39%
    09:00 +28°C° 0 mm 1 mps 656 mmHg 36%
    10:00 +29°C° 0 mm 1 mps 656 mmHg 33%
    11:00 +30°C° 0 mm 1 mps 657 mmHg 30%
    12:00 +31°C° 0 mm 1 mps 656 mmHg 29%
    13:00 +31°C° 0 mm 2 mps 656 mmHg 28%
    14:00 +32°C° 0 mm 2 mps 656 mmHg 27%
    15:00 +32°C° 0 mm 2 mps 656 mmHg 28%
    16:00 +31°C° 0 mm 2 mps 655 mmHg 29%
    17:00 +31°C° 0 mm 2 mps 655 mmHg 30%
    18:00 +28°C° 0.4 mm 2 mps 655 mmHg 41%
    19:00 +26°C° 0.4 mm 3 mps 655 mmHg 51%
    20:00 +22°C° 0.4 mm 4 mps 654 mmHg 61%
    21:00 +22°C° 0.4 mm 3 mps 655 mmHg 61%
    22:00 +22°C° 0.4 mm 3 mps 655 mmHg 60%
    23:00 +23°C° 0.4 mm 2 mps 655 mmHg 60%

    5 June, Friday

    Time Temperature Precipitation Wind Pressure Humidity
    00:00 +23°C° 0.1 mm 2 mps 655 mmHg 58%
    01:00 +23°C° 0.1 mm 2 mps 655 mmHg 57%
    02:00 +23°C° 0.1 mm 2 mps 655 mmHg 55%
    03:00 +23°C° 0 mm 2 mps 655 mmHg 54%
    04:00 +23°C° 0 mm 2 mps 654 mmHg 53%
    05:00 +23°C° 0 mm 2 mps 654 mmHg 52%
    06:00 +24°C° 0 mm 1 mps 655 mmHg 46%
    07:00 +26°C° 0 mm 1 mps 656 mmHg 41%
    08:00 +25°C° 0 mm 0 mps 656 mmHg 35%
    09:00 +28°C° 0 mm 1 mps 656 mmHg 35%
    10:00 +29°C° 0 mm 2 mps 656 mmHg 34%
    11:00 +30°C° 0 mm 2 mps 656 mmHg 33%
    12:00 +31°C° 0 mm 2 mps 656 mmHg 32%
    13:00 +33°C° 0 mm 3 mps 656 mmHg 31%
    14:00 +33°C° 0 mm 3 mps 656 mmHg 31%
    15:00 +33°C° 0 mm 3 mps 655 mmHg 31%
    16:00 +33°C° 0 mm 3 mps 655 mmHg 32%
    17:00 +33°C° 0 mm 3 mps 655 mmHg 32%
    18:00 +30°C° 0 mm 2 mps 655 mmHg 39%
    19:00 +29°C° 0 mm 1 mps 654 mmHg 47%
    20:00 +27°C° 0 mm 1 mps 654 mmHg 54%
    21:00 +27°C° 0.1 mm 1 mps 655 mmHg 55%
    22:00 +26°C° 0.1 mm 1 mps 655 mmHg 56%
    23:00 +26°C° 0.1 mm 1 mps 655 mmHg 57%
    Show more